Location: Endfield
(51.6667°N, 0.0667°W)
Time: 19:22:45
(UTC+00:00)

Cosmos 1833 Rocket - Pass Details

Date: 19 May 2024
Orbit: 831 x 839 km, 71.0° (Epoch: 16 June)

Event Time Altitude Azimuth Distance (km) Brightness Sun altitude
Exits shadow 23:17:20 20° 127° (SE) 1,847 4.1 -17.8°
Maximum altitude 23:19:00 23° 102° (ESE) 1,717 4.1 -17.8°
Drops below altitude 10° 23:23:15 10° 52° (NE) 2,451 5.5 -17.9°
Sets 23:26:10 0° 39° (NE) 3,391 6.5 -18.0°
